Regional Weather Roundup
Issued by NWS Kansas City/Pleasant Hill, MO

Home | Current Version | Previous Version | Graphics & Text | Print | Product List | Glossary Off
Versions: 1 2 3 4 5 6 7 8 9 10 11 12 13 14 15 16 17 18 19 20 21 22 23 24 25 26 27 28 29 30 31 32 33 34 35 36 37 38 39 40 41 42 43 44 45 46 47 48 49 50

000
ASUS43 KEAX 061204
RWREAX

WEATHER ROUNDUP FOR EASTERN KANSAS AND NORTHWEST MISSOURI
NATIONAL WEATHER SERVICE KANSAS CITY/PLEASANT HILL MO
700 AM CDT MON JUL 06 2015

KSZ040-057-103>105-MOZ028-029-037-043-061300-
...KANSAS CITY METROPOLITAN AREA...

CITY           SKY/WX    TMP DP  RH WIND       PRES   REMARKS
K.C. INTL      CLOUDY    74  70  87 S10       29.90R
6HR MIN TEMP:  73; 6HR MAX TEMP:  79;

K.C. DOWNTOWN  CLOUDY    77  70  79 S9        29.90R
6HR MIN TEMP:  75; 6HR MAX TEMP:  79;

LEES SUMMIT    CLOUDY    74  69  85 S9        29.93R
6HR MIN TEMP:  73; 6HR MAX TEMP:  75;

OLATHE - IXD   CLOUDY    73  70  90 S9        29.93R
6HR MIN TEMP:  72; 6HR MAX TEMP:  76;

OLATHE - OJC   CLOUDY    73  69  87 S9        29.92R
6HR MIN TEMP:  72; 6HR MAX TEMP:  74;

LAWRENCE       CLOUDY    74  71  91 SE5       29.90R

$$

MOZ001>008-011>017-020>025-030>033-038>040-044>046-053-054-061300-
...NORTHERN AND CENTRAL MISSOURI...

CITY           SKY/WX    TMP DP  RH WIND       PRES   REMARKS
ST. JOSEPH     CLOUDY    77  72  84 S9        29.89R
6HR MIN TEMP:  76; 6HR MAX TEMP:  81;

MOSBY          CLOUDY    73  68  83 SE3       29.91R
HARRISONVILLE  CLOUDY    73  70  88 S3        29.97
WHITEMAN AFB   NOT AVBL
CLINTON        PTSUNNY   73  72  94 S7        29.96R
SEDALIA        MOSUNNY   74  68  81 S12       29.97R
6HR MIN TEMP:  73; 6HR MAX TEMP:  75;

WARSAW         NOT AVBL
CHILLICOTHE      N/A     74  69  85 S6        29.91S
6HR MIN TEMP:  74; 6HR MAX TEMP:  78;

KIRKSVILLE     CLOUDY    73  68  84 S8        29.93S
6HR MIN TEMP:  72; 6HR MAX TEMP:  75;


$$

MOZ041-047>049-056>058-063>065-088>090-097-061300-
...EASTERN AND SOUTHERN MISSOURI...

CITY           SKY/WX    TMP DP  RH WIND       PRES   REMARKS
ST. LOUIS INTL PTSUNNY   76  70  82 S8        30.01R HAZE
6HR MIN TEMP:  74; 6HR MAX TEMP:  78;

SPIRIT OF STL  MOSUNNY   74  72  93 CALM      30.00R
COLUMBIA       PTSUNNY   74  72  93 S10       29.98R
JEFFERSON CITY PTSUNNY   75  72  90 SE5       29.97R
MEXICO         PTSUNNY  N/A N/A N/A S6        29.97R HAZE
ROLLA          PTSUNNY   73  71  93 S9        30.00R
LEBANON        PTSUNNY   73  70  88 MISG      30.03R
OSAGE BEACH    PTSUNNY   73  70  88 S6        29.99R
SPRINGFIELD    MOSUNNY   72  70  93 S12       30.01R
BRANSON        CLOUDY    72  70  94 S6        30.05R
JOPLIN         MOCLDY    75  71  87 S14       29.98R
WEST PLAINS    CLOUDY    71  69  93 S6        30.07R FOG
MALDEN         CLOUDY    75  72  88 S8        30.08S

$$

IAZ060-094-KSZ022-034>040-054-083-096-NEZ052-066-093-061300-
...KANSAS...SOUTHEAST NEBRASKA AND IOWA...

CITY           SKY/WX    TMP DP  RH WIND       PRES   REMARKS
TOPEKA         CLOUDY    77  72  84 S5        29.88R
6HR MIN TEMP:  76; 6HR MAX TEMP:  83;

MANHATTAN      CLOUDY    78  70  76 S7        29.86R
EMPORIA        MOCLDY    74  69  85 S15       29.90R
CHANUTE        MOCLDY    75  71  87 S10       29.93R
WICHITA        CLOUDY    77  69  76 S12       29.88R
OMAHA          LGT RAIN  73  71  93 N9        29.86S
LINCOLN        LGT RAIN  72  70  93 E7        29.86S
FALLS CITY     CLOUDY    77  72  84 SW3       29.87R
LAMONI         CLOUDY    74  69  85 S9        29.89R
DES MOINES     TSTM      77  72  84 W9        29.86R

$$



USA.gov is the U.S. government's official web portal to all federal, state and local government web resources and services.